Regional Weather Roundup
Issued by NWS Boston, MA

Home | Current Version | Previous Version | Text Only | Print | Product List | Glossary On
Versions: 1 2 3 4 5 6 7 8 9 10 11 12 13 14 15 16 17 18 19 20 21 22 23 24 25 26 27 28 29 30 31 32 33 34 35 36 37 38 39 40 41 42 43 44 45 46 47 48 49 50
000
ASUS41 KBOX 292110
RWRBOX

REGIONAL WEATHER ROUNDUP
NATIONAL WEATHER SERVICE TAUNTON MA
400 PM EST THU JAN 29 2015

NOTE:  "FAIR" INDICATES FEW OR NO CLOUDS BELOW 12,000 FEET WITH NO
SIGNIFICANT WEATHER AND/OR OBSTRUCTIONS TO VISIBILITY.  THE FOLLOWING
OBSERVATION LOCATIONS DO NOT REPORT PRESENT WEATHER...PROVINCETOWN...
SMITHFIELD...BLOCK ISLAND...KEENE...AND OXFORD.

MAZALL-292200-
EASTERN MASSACHUSETTS

CITY           SKY/WX    TMP DP  RH WIND       PRES   REMARKS
BOSTON         PTCLDY    29  19  66 E3        30.19F
BEVERLY        CLEAR     30  17  58 SE7       30.18F WCI  23
LAWRENCE       CLEAR     32  16  51 SE7       30.18F WCI  26
BEDFORD        CLEAR     30  19  63 SE7       30.16F WCI  23
BLUE HILL        N/A     31  16  54 E6        30.13F WCI  25
NORWOOD        CLEAR     34  14  43 SE6       30.17F WCI  29
MARSHFIELD     CLEAR     34  25  69 CALM      30.21S
PLYMOUTH       CLEAR     32  21  64 E5        30.18F WCI  27
TAUNTON        CLEAR     34  17  50 E5        30.18F WCI  30
NEW BEDFORD    CLEAR     32  20  61 S7        30.18F WCI  26
$$

MAZALL-292200-
CAPE COD AND THE ISLANDS

CITY           SKY/WX    TMP DP  RH WIND       PRES   REMARKS
FALMOUTH       CLEAR     30  19  64 SW7       30.18F WCI  23
HYANNIS        CLEAR     33  24  69 NW3       30.17F
CHATHAM        CLEAR     32  21  64 E3        30.19F
NANTUCKET      CLEAR     35  23  61 NE3       30.18F
MARTHAS VNYRD  CLEAR     32  18  56 NW5       30.19F WCI  27
$$

MAZALL-292200-
CENTRAL AND WESTERN MASSACHUSETTS

CITY           SKY/WX    TMP DP  RH WIND       PRES   REMARKS
WORCESTER      PTCLDY    30   5  34 SE7       30.11F WCI  23
FITCHBURG      CLEAR     33   4  29 SE7       30.15F WCI  27
ORANGE         PTCLDY    31   1  28 S6        30.12F WCI  25
SPRINGFIELD    PTCLDY    26   4  38 S5        30.14F WCI  20
WESTFIELD      PTCLDY    30   2  30 CALM      30.14F
NORTH ADAMS    MOCLDY    35  -7  16 E17G25    30.06F WCI  25
PITTSFIELD     CLOUDY    31   0  26 SE16      30.02F WCI  20
$$

RIZALL-292200-
RHODE ISLAND

CITY           SKY/WX    TMP DP  RH WIND       PRES   REMARKS
PROVIDENCE     MOCLDY    29  14  53 S9        30.19F WCI  20
NEWPORT        CLEAR     29  17  61 S5        30.19F WCI  24
BLOCK ISLAND   CLEAR     30  18  59 SE6       30.19F WCI  24
SMITHFIELD     CLEAR     30  10  43 SE3       30.15F
WESTERLY       CLEAR     29  19  66 SE5       30.19F WCI  24
$$

CTZALL-292200-
CONNECTICUT

CITY           SKY/WX    TMP DP  RH WIND       PRES   REMARKS
BRADLEY INTL   MOCLDY    29   6  38 S6        30.15F WCI  23
HARTFORD       PTCLDY    30   6  36 CALM      30.17F
BRIDGEPORT     MOCLDY    28  15  58 E7        30.19F WCI  21
DANBURY        CLOUDY    30   2  30 S5        30.14F WCI  25
GROTON         CLEAR     28  20  71 SE6       30.19F WCI  22
NEW HAVEN      MOCLDY    29  14  53 SE3       30.19F
CHESTER        FAIR      30  18  59 S6        30.17S WCI  24
MERIDEN        MOCLDY    31   8  38 S10       30.18S WCI  22
WILLIMANTIC    PTCLDY    31   3  30 S7        30.17F WCI  24
OXFORD         PTCLDY    28   1  31 S8        30.13F WCI  20
$$

MEZ002-015-021-024-NHZ003-005-008-011-012-014-VTZ005-008-292200-
NORTHERN NEW ENGLAND

CITY           SKY/WX    TMP DP  RH WIND       PRES   REMARKS
PORTLAND ME    PTCLDY    27   6  41 S6        30.19F WCI  20
BANGOR ME      PTCLDY    19   6  57 CALM      30.18F
CONCORD NH     CLEAR     28   3  34 S8        30.14F WCI  20
MANCHESTER NH  PTCLDY    31   9  39 S8        30.14F WCI  23
NASHUA NH        N/A     32  11  41 CALM      30.16F
PORTSMOUTH NH  PTCLDY    28  15  56 E7        30.16F WCI  21
JAFFREY NH     CLEAR     31  -1  25 SE9       30.09F WCI  23
KEENE NH       PTCLDY    30   3  31 W5        30.11F WCI  25
BURLINGTON VT  CLOUDY    29   3  33 S8        29.99F WCI  21
MT. WASHINGTON MOCLDY    14 -29  13 S39         N/A  WCI  -9
$$

NYZ052-076-292200-
EASTERN NEW YORK

CITY           SKY/WX    TMP DP  RH WIND       PRES   REMARKS
ALBANY         CLOUDY    30   3  31 S16G23    30.07F WCI  19
NEW YORK CITY  CLOUDY    30  19  63 S10       30.16F WCI  21
$$

ANZALL-292200-
MARINE OBSERVATIONS

STATION/POSITION TIME  TEMP    WIND        PRES    VSBY  WAVE
                       AIR SEA DIR/SP/G                  HT/PER
                 (UTC) (F)     (DEG/KT/KT) (MB)    (MI)  (FT/S)
BOSTON BUOY      2050   34 41  160/  2/  4 1022.5F         3/10
BUZZARDS BAY     2000           CALM  /  1 1023.5F
NANTUCKET SOUND  NOT AVBL
MASS BAY-STELLWA 2004   29 41  360/  4/  6   N/A    1 7/8  3/11
ISLE OF SHOALS   2100   30      CALM  /  2 1021.6F
S OF BLOCK IS    2008      43                N/A           2/10
$$

......................KEY.........................
  SKY/WX - SKY CONDITION/PRESENT WEATHER
  TMP    - TEMPERATURE IN FAHRENHEIT
  DWPT   - DEWPOINT IN FAHRENHEIT
  RH     - RELATIVE HUMIDITY IN PERCENT
  WIND   - DIRECTION AND SPEED IN MPH
  PRES   - MEAN SEA LEVEL PRESSURE IN INCHES OF HG
  WCI    - WIND CHILL INDEX
  VSB    - VISIBILITY IN MILES
  HX     - HEAT INDEX
  TC     - TEMPERATURE IN CELSIUS
  VRB    - VARIABLE WIND DIRECTION
  N/A    - NOT AVAILABLE


USA.gov is the U.S. government's official web portal to all federal, state and local government web resources and services.